"Time","Value","Approval","myLocation"
"2023-05-07 00:00",6.06791132786522,"Approved","OW478"
"2023-05-07 01:00",6.06990744845932,"Approved","OW478"
"2023-05-07 02:00",6.06990356905342,"Approved","OW478"
"2023-05-07 03:00",6.06889968964753,"Approved","OW478"
"2023-05-07 04:00",6.06889581024163,"Approved","OW478"
"2023-05-07 05:00",6.07089193083574,"Approved","OW478"
"2023-05-07 06:00",6.07288805142984,"Approved","OW478"
"2023-05-07 07:00",6.07488417202394,"Approved","OW478"
"2023-05-07 08:00",6.07488029261805,"Approved","OW478"
"2023-05-07 09:00",6.07587641321215,"Approved","OW478"
"2023-05-07 10:00",6.07687253380625,"Approved","OW478"
"2023-05-07 11:00",6.07786865440035,"Approved","OW478"
"2023-05-07 12:00",6.07786477499446,"Approved","OW478"
"2023-05-07 13:00",6.07986089558856,"Approved","OW478"
"2023-05-07 14:00",6.08085701618266,"Approved","OW478"
"2023-05-07 15:00",6.08185313677677,"Approved","OW478"
"2023-05-07 16:00",6.08284925737087,"Approved","OW478"
"2023-05-07 17:00",6.08484537796497,"Approved","OW478"
"2023-05-07 18:00",6.08784149855908,"Approved","OW478"
"2023-05-07 19:00",6.09083761915318,"Approved","OW478"
"2023-05-07 20:00",6.09283373974728,"Approved","OW478"
"2023-05-07 21:00",6.09582986034139,"Approved","OW478"
"2023-05-07 22:00",6.09882598093549,"Approved","OW478"
"2023-05-07 23:00",6.10082210152959,"Approved","OW478"
"2023-05-08 00:00",6.1018182221237,"Approved","OW478"
"2023-05-08 01:00",6.1028143427178,"Approved","OW478"
"2023-05-08 02:00",6.1028104633119,"Approved","OW478"
"2023-05-08 03:00",6.10280658390601,"Approved","OW478"
"2023-05-08 04:00",6.10380270450011,"Approved","OW478"
"2023-05-08 05:00",6.10579882509421,"Approved","OW478"
"2023-05-08 06:00",6.10679494568832,"Approved","OW478"
"2023-05-08 07:00",6.10979106628242,"Approved","OW478"
"2023-05-08 08:00",6.10978718687652,"Approved","OW478"
"2023-05-08 09:00",6.11078330747063,"Approved","OW478"
"2023-05-08 10:00",6.11177942806473,"Approved","OW478"
"2023-05-08 11:00",6.11277554865883,"Approved","OW478"
"2023-05-08 12:00",6.11277166925294,"Approved","OW478"
"2023-05-08 13:00",6.11376778984704,"Approved","OW478"
"2023-05-08 14:00",6.11476391044114,"Approved","OW478"
"2023-05-08 15:00",6.11576003103525,"Approved","OW478"
"2023-05-08 16:00",6.11675615162935,"Approved","OW478"
"2023-05-08 17:00",6.11875227222345,"Approved","OW478"
"2023-05-08 18:00",6.12174839281756,"Approved","OW478"
"2023-05-08 19:00",6.12374451341166,"Approved","OW478"
"2023-05-08 20:00",6.12574063400576,"Approved","OW478"
"2023-05-08 21:00",6.12573675459987,"Approved","OW478"
"2023-05-08 22:00",6.12573287519397,"Approved","OW478"
"2023-05-08 23:00",6.12572899578807,"Approved","OW478"
"2023-05-09 00:00",6.12572511638218,"Approved","OW478"
"2023-05-09 01:00",6.12572123697628,"Approved","OW478"
"2023-05-09 02:00",6.12671735757038,"Approved","OW478"
"2023-05-09 03:00",6.12671347816449,"Approved","OW478"
"2023-05-09 04:00",6.12570959875859,"Approved","OW478"
"2023-05-09 05:00",6.12570571935269,"Approved","OW478"
"2023-05-09 06:00",6.1257018399468,"Approved","OW478"
"2023-05-09 07:00",6.1246979605409,"Approved","OW478"
"2023-05-09 08:00",6.126694081135,"Approved","OW478"
"2023-05-09 09:00",6.12869020172911,"Approved","OW478"
"2023-05-09 10:00",6.12968632232321,"Approved","OW478"
"2023-05-09 11:00",6.12968244291731,"Approved","OW478"
"2023-05-09 12:00",6.12967856351142,"Approved","OW478"
"2023-05-09 13:00",6.12967468410552,"Approved","OW478"
"2023-05-09 14:00",6.13067080469962,"Approved","OW478"
"2023-05-09 15:00",6.13066692529373,"Approved","OW478"
"2023-05-09 16:00",6.13066304588783,"Approved","OW478"
"2023-05-09 17:00",6.13165916648193,"Approved","OW478"
"2023-05-09 18:00",6.13165528707604,"Approved","OW478"
"2023-05-09 19:00",6.13365140767014,"Approved","OW478"
"2023-05-09 20:00",6.13564752826424,"Approved","OW478"
"2023-05-09 21:00",6.13664364885835,"Approved","OW478"
"2023-05-09 22:00",6.13763976945245,"Approved","OW478"
"2023-05-09 23:00",6.13863589004655,"Approved","OW478"
"2023-05-10 00:00",6.13863201064066,"Approved","OW478"
"2023-05-10 01:00",6.13662813123476,"Approved","OW478"
"2023-05-10 02:00",6.13562425182886,"Approved","OW478"
"2023-05-10 03:00",6.13462037242297,"Approved","OW478"
"2023-05-10 04:00",6.13561649301707,"Approved","OW478"
"2023-05-10 05:00",6.13561261361117,"Approved","OW478"
"2023-05-10 06:00",6.13560873420528,"Approved","OW478"
"2023-05-10 07:00",6.13460485479938,"Approved","OW478"
"2023-05-10 08:00",6.13360097539348,"Approved","OW478"
"2023-05-10 09:00",6.13359709598759,"Approved","OW478"
"2023-05-10 10:00",6.13359321658169,"Approved","OW478"
"2023-05-10 11:00",6.13358933717579,"Approved","OW478"
"2023-05-10 12:00",6.1335854577699,"Approved","OW478"
"2023-05-10 13:00",6.134581578364,"Approved","OW478"
"2023-05-10 14:00",6.1345776989581,"Approved","OW478"
"2023-05-10 15:00",6.13557381955221,"Approved","OW478"
"2023-05-10 16:00",6.13556994014631,"Approved","OW478"
"2023-05-10 17:00",6.13756606074041,"Approved","OW478"
"2023-05-10 18:00",6.13956218133452,"Approved","OW478"
"2023-05-10 19:00",6.14155830192862,"Approved","OW478"
"2023-05-10 20:00",6.14355442252272,"Approved","OW478"
"2023-05-10 21:00",6.14455054311683,"Approved","OW478"
"2023-05-10 22:00",6.14354666371093,"Approved","OW478"
"2023-05-10 23:00",6.14154278430503,"Approved","OW478"
"2023-05-11 00:00",6.13953890489914,"Approved","OW478"
"2023-05-11 01:00",6.13653502549324,"Approved","OW478"
"2023-05-11 02:00",6.13353114608734,"Approved","OW478"
"2023-05-11 03:00",6.13252726668145,"Approved","OW478"
"2023-05-11 04:00",6.13352338727555,"Approved","OW478"
"2023-05-11 05:00",6.13251950786965,"Approved","OW478"
"2023-05-11 06:00",6.13251562846376,"Approved","OW478"
"2023-05-11 07:00",6.13351174905786,"Approved","OW478"
"2023-05-11 08:00",6.13250786965196,"Approved","OW478"
"2023-05-11 09:00",6.13250399024607,"Approved","OW478"
"2023-05-11 10:00",6.13250011084017,"Approved","OW478"
"2023-05-11 11:00",6.13249623143427,"Approved","OW478"
"2023-05-11 12:00",6.13349235202837,"Approved","OW478"
"2023-05-11 13:00",6.13348847262248,"Approved","OW478"
"2023-05-11 14:00",6.13648459321658,"Approved","OW478"
"2023-05-11 15:00",6.13848071381068,"Approved","OW478"
"2023-05-11 16:00",6.14047683440479,"Approved","OW478"
"2023-05-11 17:00",6.14047295499889,"Approved","OW478"
"2023-05-11 18:00",6.14146907559299,"Approved","OW478"
"2023-05-11 19:00",6.1414651961871,"Approved","OW478"
"2023-05-11 20:00",6.1434613167812,"Approved","OW478"
"2023-05-11 21:00",6.14545743737531,"Approved","OW478"
"2023-05-11 22:00",6.14545355796941,"Approved","OW478"
"2023-05-11 23:00",6.14544967856351,"Approved","OW478"
"2023-05-12 00:00",6.14544579915762,"Approved","OW478"
"2023-05-12 01:00",6.14444191975172,"Approved","OW478"
"2023-05-12 02:00",6.14243804034582,"Approved","OW478"
"2023-05-12 03:00",6.14143416093992,"Approved","OW478"
"2023-05-12 04:00",6.14143028153403,"Approved","OW478"
"2023-05-12 05:00",6.14042640212813,"Approved","OW478"
"2023-05-12 06:00",6.14042252272223,"Approved","OW478"
"2023-05-12 07:00",6.14041864331634,"Approved","OW478"
"2023-05-12 08:00",6.14141476391044,"Approved","OW478"
"2023-05-12 09:00",6.14141088450454,"Approved","OW478"
"2023-05-12 10:00",6.14040700509865,"Approved","OW478"
"2023-05-12 11:00",6.14040312569275,"Approved","OW478"
"2023-05-12 12:00",6.14139924628685,"Approved","OW478"
"2023-05-12 13:00",6.14339536688096,"Approved","OW478"
"2023-05-12 14:00",6.14639148747506,"Approved","OW478"
"2023-05-12 15:00",6.14838760806916,"Approved","OW478"
"2023-05-12 16:00",6.15038372866327,"Approved","OW478"
"2023-05-12 17:00",6.15037984925737,"Approved","OW478"
"2023-05-12 18:00",6.15237596985147,"Approved","OW478"
"2023-05-12 19:00",6.15437209044558,"Approved","OW478"
"2023-05-12 20:00",6.15636821103968,"Approved","OW478"
"2023-05-12 21:00",6.15736433163378,"Approved","OW478"
"2023-05-12 22:00",6.15736045222789,"Approved","OW478"
"2023-05-12 23:00",6.15535657282199,"Approved","OW478"
"2023-05-13 00:00",6.15335269341609,"Approved","OW478"
"2023-05-13 01:00",6.1513488140102,"Approved","OW478"
"2023-05-13 02:00",6.1503449346043,"Approved","OW478"
"2023-05-13 03:00",6.1473410551984,"Approved","OW478"
"2023-05-13 04:00",6.14433717579251,"Approved","OW478"
"2023-05-13 05:00",6.14233329638661,"Approved","OW478"
"2023-05-13 06:00",6.13932941698071,"Approved","OW478"
"2023-05-13 07:00",6.13832553757482,"Approved","OW478"
"2023-05-13 08:00",6.13732165816892,"Approved","OW478"
"2023-05-13 09:00",6.13731777876302,"Approved","OW478"
"2023-05-13 10:00",6.13831389935713,"Approved","OW478"
"2023-05-13 11:00",6.13831001995123,"Approved","OW478"
"2023-05-13 12:00",6.13930614054533,"Approved","OW478"
"2023-05-13 13:00",6.14130226113944,"Approved","OW478"
"2023-05-13 14:00",6.14229838173354,"Approved","OW478"
"2023-05-13 15:00",6.14429450232764,"Approved","OW478"
"2023-05-13 16:00",6.14529062292175,"Approved","OW478"
"2023-05-13 17:00",6.14628674351585,"Approved","OW478"
"2023-05-13 18:00",6.14828286410995,"Approved","OW478"
"2023-05-13 19:00",6.15027898470406,"Approved","OW478"
"2023-05-13 20:00",6.15027510529816,"Approved","OW478"
"2023-05-13 21:00",6.15127122589226,"Approved","OW478"
"2023-05-13 22:00",6.14926734648637,"Approved","OW478"
"2023-05-13 23:00",6.14526346708047,"Approved","OW478"
"2023-05-14 00:00",6.14025958767457,"Approved","OW478"
"2023-05-14 01:00",6.13325570826868,"Approved","OW478"
"2023-05-14 02:00",6.12625182886278,"Approved","OW478"
"2023-05-14 03:00",6.11924794945688,"Approved","OW478"
"2023-05-14 04:00",6.11424407005099,"Approved","OW478"
"2023-05-14 05:00",6.10924019064509,"Approved","OW478"
"2023-05-14 06:00",6.10523631123919,"Approved","OW478"
"2023-05-14 07:00",6.1022324318333,"Approved","OW478"
"2023-05-14 08:00",6.1012285524274,"Approved","OW478"
"2023-05-14 09:00",6.1012246730215,"Approved","OW478"
"2023-05-14 10:00",6.10022079361561,"Approved","OW478"
"2023-05-14 11:00",6.10021691420971,"Approved","OW478"
"2023-05-14 12:00",6.10021303480381,"Approved","OW478"
"2023-05-14 13:00",6.10120915539792,"Approved","OW478"
"2023-05-14 14:00",6.10220527599202,"Approved","OW478"
"2023-05-14 15:00",6.10320139658612,"Approved","OW478"
"2023-05-14 16:00",6.10419751718023,"Approved","OW478"
"2023-05-14 17:00",6.10619363777433,"Approved","OW478"
"2023-05-14 18:00",6.10718975836843,"Approved","OW478"
"2023-05-14 19:00",6.10818587896254,"Approved","OW478"
"2023-05-14 20:00",6.10818199955664,"Approved","OW478"
"2023-05-14 21:00",6.10817812015074,"Approved","OW478"
"2023-05-14 22:00",6.10517424074485,"Approved","OW478"
"2023-05-14 23:00",6.09917036133895,"Approved","OW478"
"2023-05-15 00:00",6.09216648193305,"Approved","OW478"
"2023-05-15 01:00",6.08416260252716,"Approved","OW478"
"2023-05-15 02:00",6.07715872312126,"Approved","OW478"
"2023-05-15 03:00",6.06915484371536,"Approved","OW478"
"2023-05-15 04:00",6.06415096430947,"Approved","OW478"
"2023-05-15 05:00",6.06014708490357,"Approved","OW478"
"2023-05-15 06:00",6.05614320549767,"Approved","OW478"
"2023-05-15 07:00",6.05413932609178,"Approved","OW478"
"2023-05-15 08:00",6.05413544668588,"Approved","OW478"
"2023-05-15 09:00",6.05413156727998,"Approved","OW478"
"2023-05-15 10:00",6.05512768787409,"Approved","OW478"
"2023-05-15 11:00",6.05612380846819,"Approved","OW478"
"2023-05-15 12:00",6.05611992906229,"Approved","OW478"
"2023-05-15 13:00",6.0581160496564,"Approved","OW478"
"2023-05-15 14:00",6.0601121702505,"Approved","OW478"
"2023-05-15 15:00",6.0621082908446,"Approved","OW478"
"2023-05-15 16:00",6.0641044114387,"Approved","OW478"
"2023-05-15 17:00",6.06610053203281,"Approved","OW478"
"2023-05-15 18:00",6.06809665262691,"Approved","OW478"
"2023-05-15 19:00",6.06909277322101,"Approved","OW478"
"2023-05-15 20:00",6.07008889381512,"Approved","OW478"
"2023-05-15 21:00",6.06908501440922,"Approved","OW478"
"2023-05-15 22:00",6.06508113500333,"Approved","OW478"
"2023-05-15 23:00",6.05807725559743,"Approved","OW478"
"2023-05-16 00:00",6.05007337619153,"Approved","OW478"
"2023-05-16 01:00",6.04206949678564,"Approved","OW478"
"2023-05-16 02:00",6.03506561737974,"Approved","OW478"
"2023-05-16 03:00",6.02906173797384,"Approved","OW478"
"2023-05-16 04:00",6.02405785856794,"Approved","OW478"
"2023-05-16 05:00",6.02105397916205,"Approved","OW478"
"2023-05-16 06:00",6.01905009975615,"Approved","OW478"
"2023-05-16 07:00",6.01804622035026,"Approved","OW478"
"2023-05-16 08:00",6.01904234094436,"Approved","OW478"
"2023-05-16 09:00",6.02003846153846,"Approved","OW478"
"2023-05-16 10:00",6.02103458213256,"Approved","OW478"
"2023-05-16 11:00",6.02303070272667,"Approved","OW478"
"2023-05-16 12:00",6.02602682332077,"Approved","OW478"
"2023-05-16 13:00",6.02802294391488,"Approved","OW478"
"2023-05-16 14:00",6.03201906450898,"Approved","OW478"
"2023-05-16 15:00",6.03401518510308,"Approved","OW478"
"2023-05-16 16:00",6.03701130569718,"Approved","OW478"
"2023-05-16 17:00",6.04000742629129,"Approved","OW478"
"2023-05-16 18:00",6.04300354688539,"Approved","OW478"
"2023-05-16 19:00",6.04599966747949,"Approved","OW478"
"2023-05-16 20:00",6.0489957880736,"Approved","OW478"
"2023-05-16 21:00",6.0499919086677,"Approved","OW478"
"2023-05-16 22:00",6.0489880292618,"Approved","OW478"
"2023-05-16 23:00",6.04498414985591,"Approved","OW478"
"2023-05-17 00:00",6.03898027045001,"Approved","OW478"
"2023-05-17 01:00",6.03097639104411,"Approved","OW478"
"2023-05-17 02:00",6.02197251163822,"Approved","OW478"
"2023-05-17 03:00",6.01496863223232,"Approved","OW478"
"2023-05-17 04:00",6.00896475282642,"Approved","OW478"
"2023-05-17 05:00",6.00696087342053,"Approved","OW478"
"2023-05-17 06:00",6.00495699401463,"Approved","OW478"
"2023-05-17 07:00",6.00395311460873,"Approved","OW478"
"2023-05-17 08:00",6.00494923520284,"Approved","OW478"
"2023-05-17 09:00",6.00594535579694,"Approved","OW478"
"2023-05-17 10:00",6.00794147639104,"Approved","OW478"
"2023-05-17 11:00",6.00993759698515,"Approved","OW478"
"2023-05-17 12:00",6.01293371757925,"Approved","OW478"
"2023-05-17 13:00",6.01592983817335,"Approved","OW478"
"2023-05-17 14:00",6.01892595876746,"Approved","OW478"
"2023-05-17 15:00",6.02192207936156,"Approved","OW478"
"2023-05-17 16:00",6.02491819995566,"Approved","OW478"
"2023-05-17 17:00",6.02791432054977,"Approved","OW478"
"2023-05-17 18:00",6.03091044114387,"Approved","OW478"
"2023-05-17 19:00",6.03390656173797,"Approved","OW478"
"2023-05-17 20:00",6.03390268233208,"Approved","OW478"
"2023-05-17 21:00",6.03389880292618,"Approved","OW478"
"2023-05-17 22:00",6.03289492352028,"Approved","OW478"
"2023-05-17 23:00",6.02789104411439,"Approved","OW478"
"2023-05-18 00:00",6.02288716470849,"Approved","OW478"
"2023-05-18 01:00",6.01588328530259,"Approved","OW478"
"2023-05-18 02:00",6.0088794058967,"Approved","OW478"
"2023-05-18 03:00",6.0048755264908,"Approved","OW478"
"2023-05-18 04:00",5.9998716470849,"Approved","OW478"
"2023-05-18 05:00",5.99886776767901,"Approved","OW478"
"2023-05-18 06:00",5.99786388827311,"Approved","OW478"
"2023-05-18 07:00",5.99886000886721,"Approved","OW478"
"2023-05-18 08:00",6.00185612946132,"Approved","OW478"
"2023-05-18 09:00",6.00385225005542,"Approved","OW478"
"2023-05-18 10:00",6.00684837064952,"Approved","OW478"
"2023-05-18 11:00",6.01084449124363,"Approved","OW478"
"2023-05-18 12:00",6.01384061183773,"Approved","OW478"
"2023-05-18 13:00",6.01883673243183,"Approved","OW478"
"2023-05-18 14:00",6.02383285302594,"Approved","OW478"
"2023-05-18 15:00",6.02782897362004,"Approved","OW478"
"2023-05-18 16:00",6.03182509421414,"Approved","OW478"
"2023-05-18 17:00",6.03582121480825,"Approved","OW478"
"2023-05-18 18:00",6.03981733540235,"Approved","OW478"
"2023-05-18 19:00",6.04381345599645,"Approved","OW478"
"2023-05-18 20:00",6.04680957659056,"Approved","OW478"
"2023-05-18 21:00",6.04880569718466,"Approved","OW478"
"2023-05-18 22:00",6.04780181777876,"Approved","OW478"
"2023-05-18 23:00",6.04379793837287,"Approved","OW478"
"2023-05-19 00:00",6.03879405896697,"Approved","OW478"
"2023-05-19 01:00",6.03279017956107,"Approved","OW478"
"2023-05-19 02:00",6.02578630015518,"Approved","OW478"
"2023-05-19 03:00",6.02278242074928,"Approved","OW478"
"2023-05-19 04:00",6.01577854134338,"Approved","OW478"
"2023-05-19 05:00",6.01377466193749,"Approved","OW478"
"2023-05-19 06:00",6.01277078253159,"Approved","OW478"
"2023-05-19 07:00",6.01376690312569,"Approved","OW478"
"2023-05-19 08:00",6.0157630237198,"Approved","OW478"
"2023-05-19 09:00",6.0187591443139,"Approved","OW478"
"2023-05-19 10:00",6.022755264908,"Approved","OW478"
"2023-05-19 11:00",6.02675138550211,"Approved","OW478"
"2023-05-19 12:00",6.03074750609621,"Approved","OW478"
"2023-05-19 13:00",6.03574362669031,"Approved","OW478"
"2023-05-19 14:00",6.03873974728442,"Approved","OW478"
"2023-05-19 15:00",6.04473586787852,"Approved","OW478"
"2023-05-19 16:00",6.04873198847262,"Approved","OW478"
"2023-05-19 17:00",6.05272810906673,"Approved","OW478"
"2023-05-19 18:00",6.05572422966083,"Approved","OW478"
"2023-05-19 19:00",6.05872035025493,"Approved","OW478"
"2023-05-19 20:00",6.06171647084904,"Approved","OW478"
"2023-05-19 21:00",6.06271259144314,"Approved","OW478"
"2023-05-19 22:00",6.06270871203724,"Approved","OW478"
"2023-05-19 23:00",6.06070483263135,"Approved","OW478"
"2023-05-20 00:00",6.05770095322545,"Approved","OW478"
"2023-05-20 01:00",6.05369707381955,"Approved","OW478"
"2023-05-20 02:00",6.04969319441366,"Approved","OW478"
"2023-05-20 03:00",6.04468931500776,"Approved","OW478"
"2023-05-20 04:00",6.04268543560186,"Approved","OW478"
"2023-05-20 05:00",6.04168155619597,"Approved","OW478"
"2023-05-20 06:00",6.04167767679007,"Approved","OW478"
"2023-05-20 07:00",6.04067379738417,"Approved","OW478"
"2023-05-20 08:00",6.04266991797827,"Approved","OW478"
"2023-05-20 09:00",6.04466603857238,"Approved","OW478"
"2023-05-20 10:00",6.04666215916648,"Approved","OW478"
"2023-05-20 11:00",6.04865827976059,"Approved","OW478"
"2023-05-20 12:00",6.05165440035469,"Approved","OW478"
"2023-05-20 13:00",6.05465052094879,"Approved","OW478"
"2023-05-20 14:00",6.0576466415429,"Approved","OW478"
"2023-05-20 15:00",6.061642762137,"Approved","OW478"
"2023-05-20 16:00",6.0646388827311,"Approved","OW478"
"2023-05-20 17:00",6.0686350033252,"Approved","OW478"
"2023-05-20 18:00",6.07263112391931,"Approved","OW478"
"2023-05-20 19:00",6.07562724451341,"Approved","OW478"
"2023-05-20 20:00",6.07862336510752,"Approved","OW478"
"2023-05-20 21:00",6.07861948570162,"Approved","OW478"
"2023-05-20 22:00",6.07861560629572,"Approved","OW478"
"2023-05-20 23:00",6.07561172688983,"Approved","OW478"
"2023-05-21 00:00",6.07060784748393,"Approved","OW478"
"2023-05-21 01:00",6.06560396807803,"Approved","OW478"
"2023-05-21 02:00",6.06160008867213,"Approved","OW478"
"2023-05-21 03:00",6.05959620926624,"Approved","OW478"
"2023-05-21 04:00",6.05759232986034,"Approved","OW478"
"2023-05-21 05:00",6.05558845045444,"Approved","OW478"
"2023-05-21 06:00",6.05658457104855,"Approved","OW478"
"2023-05-21 07:00",6.05658069164265,"Approved","OW478"
"2023-05-21 08:00",6.05957681223676,"Approved","OW478"
"2023-05-21 09:00",6.06257293283086,"Approved","OW478"
"2023-05-21 10:00",6.06556905342496,"Approved","OW478"
"2023-05-21 11:00",6.06856517401906,"Approved","OW478"
"2023-05-21 12:00",6.07156129461317,"Approved","OW478"
"2023-05-21 13:00",6.07555741520727,"Approved","OW478"
"2023-05-21 14:00",6.07855353580138,"Approved","OW478"
"2023-05-21 15:00",6.08254965639548,"Approved","OW478"
"2023-05-21 16:00",6.08654577698958,"Approved","OW478"
"2023-05-21 17:00",6.08954189758368,"Approved","OW478"
"2023-05-21 18:00",6.09253801817779,"Approved","OW478"
"2023-05-21 19:00",6.09653413877189,"Approved","OW478"
"2023-05-21 20:00",6.09953025936599,"Approved","OW478"
"2023-05-21 21:00",6.1015263799601,"Approved","OW478"
"2023-05-21 22:00",6.1025225005542,"Approved","OW478"
"2023-05-21 23:00",6.1025186211483,"Approved","OW478"
"2023-05-22 00:00",6.10051474174241,"Approved","OW478"
"2023-05-22 01:00",6.09851086233651,"Approved","OW478"
"2023-05-22 02:00",6.09750698293061,"Approved","OW478"
"2023-05-22 03:00",6.09650310352472,"Approved","OW478"
"2023-05-22 04:00",6.09649922411882,"Approved","OW478"
"2023-05-22 05:00",6.09749534471292,"Approved","OW478"
"2023-05-22 06:00",6.09849146530703,"Approved","OW478"
"2023-05-22 07:00",6.10048758590113,"Approved","OW478"
"2023-05-22 08:00",6.10348370649523,"Approved","OW478"
"2023-05-22 09:00",6.10547982708934,"Approved","OW478"
"2023-05-22 10:00",6.10747594768344,"Approved","OW478"
"2023-05-22 11:00",6.10847206827754,"Approved","OW478"
"2023-05-22 12:00",6.11046818887165,"Approved","OW478"
"2023-05-22 13:00",6.11146430946575,"Approved","OW478"
"2023-05-22 14:00",6.11346043005985,"Approved","OW478"
"2023-05-22 15:00",6.11445655065396,"Approved","OW478"
"2023-05-22 16:00",6.11545267124806,"Approved","OW478"
"2023-05-22 17:00",6.11744879184216,"Approved","OW478"
"2023-05-22 18:00",6.11844491243627,"Approved","OW478"
"2023-05-22 19:00",6.11944103303037,"Approved","OW478"
"2023-05-22 20:00",6.12043715362447,"Approved","OW478"
"2023-05-22 21:00",6.12143327421858,"Approved","OW478"
"2023-05-22 22:00",6.12242939481268,"Approved","OW478"
"2023-05-22 23:00",6.12342551540678,"Approved","OW478"
"2023-05-23 00:00",6.12342163600089,"Approved","OW478"
"2023-05-23 01:00",6.12341775659499,"Approved","OW478"
"2023-05-23 02:00",6.12241387718909,"Approved","OW478"
"2023-05-23 03:00",6.1214099977832,"Approved","OW478"
"2023-05-23 04:00",6.1214061183773,"Approved","OW478"
"2023-05-23 05:00",6.1234022389714,"Approved","OW478"
"2023-05-23 06:00",6.12339835956551,"Approved","OW478"
"2023-05-23 07:00",6.12439448015961,"Approved","OW478"
"2023-05-23 08:00",6.12539060075371,"Approved","OW478"
"2023-05-23 09:00",6.12638672134782,"Approved","OW478"
"2023-05-23 10:00",6.12838284194192,"Approved","OW478"
"2023-05-23 11:00",6.12937896253602,"Approved","OW478"
"2023-05-23 12:00",6.13137508313013,"Approved","OW478"
"2023-05-23 13:00",6.13237120372423,"Approved","OW478"
"2023-05-23 14:00",6.13536732431833,"Approved","OW478"
"2023-05-23 15:00",6.13636344491244,"Approved","OW478"
"2023-05-23 16:00",6.13735956550654,"Approved","OW478"
"2023-05-23 17:00",6.13935568610064,"Approved","OW478"
"2023-05-23 18:00",6.14035180669475,"Approved","OW478"
"2023-05-23 19:00",6.14034792728885,"Approved","OW478"
"2023-05-23 20:00",6.14034404788295,"Approved","OW478"
"2023-05-23 21:00",6.14134016847706,"Approved","OW478"
"2023-05-23 22:00",6.14233628907116,"Approved","OW478"
"2023-05-23 23:00",6.14333240966526,"Approved","OW478"
"2023-05-24 00:00",6.14332853025937,"Approved","OW478"
"2023-05-24 01:00",6.14432465085347,"Approved","OW478"
"2023-05-24 02:00",6.14532077144757,"Approved","OW478"
"2023-05-24 03:00",6.14531689204168,"Approved","OW478"
"2023-05-24 04:00",6.14731301263578,"Approved","OW478"
"2023-05-24 05:00",6.14730913322988,"Approved","OW478"
"2023-05-24 06:00",6.14830525382399,"Approved","OW478"
"2023-05-24 07:00",6.15030137441809,"Approved","OW478"
"2023-05-24 08:00",6.15129749501219,"Approved","OW478"
"2023-05-24 09:00",6.1522936156063,"Approved","OW478"
"2023-05-24 10:00",6.1532897362004,"Approved","OW478"
"2023-05-24 11:00",6.1542858567945,"Approved","OW478"
"2023-05-24 12:00",6.15628197738861,"Approved","OW478"
"2023-05-24 13:00",6.15727809798271,"Approved","OW478"
"2023-05-24 14:00",6.15927421857681,"Approved","OW478"
"2023-05-24 15:00",6.16027033917092,"Approved","OW478"
"2023-05-24 16:00",6.16126645976502,"Approved","OW478"
"2023-05-24 17:00",6.16226258035912,"Approved","OW478"
"2023-05-24 18:00",6.16325870095323,"Approved","OW478"
"2023-05-24 19:00",6.16525482154733,"Approved","OW478"